Back to catalog

STARLINK-11609

AliveCommunicationsVLEO
NORAD 63132·PAYLOAD·🇺🇸 United States

Launched Mar 3, 2025 from Cape Canaveral Space Force Station

Loading…

Next Passes (next 24 hours)

TLE

FreshSource: CelesTrak SupGP

Epoch: Sep 14, 2026, 21:37 UTC

1 63132C 25043A   26257.90118056  .00028364  00000+0  22036-3 0  2576
2 63132  43.0008 190.3190 0001422 262.2732 291.3959 15.70817847    15

Track STARLINK-11609 in real time with AllMySat

Download on the App Store